Location: Palo Alto
(37.4420°N, 122.1420°W)
Time: 02:23:13
(UTC-07:00)

ARGOS - Visible Passes

Search period start: 18 April 2014 00:00
Search period end: 28 April 2014 00:00
Orbit: 821 x 835 km, 98.8° (Epoch: 17 April)

Date Brightness Start Highest point End Pass type
(mag) Time Alt. Az. Time Alt. Az. Time Alt. Az.
18 Apr 5.7 00:06:51 13° WNW 00:06:51 13° WNW 00:08:06 10° WNW visible
18 Apr 3.8 22:06:37 41° ENE 22:06:37 41° ENE 22:11:16 10° N visible
18 Apr 5.3 23:48:08 20° WNW 23:48:08 20° WNW 23:50:44 10° NW visible
19 Apr 4.2 21:47:54 29° ENE 21:47:58 29° ENE 21:52:32 10° N visible
19 Apr 4.8 23:29:25 29° WNW 23:29:25 29° WNW 23:32:54 10° NNW visible
20 Apr 4.6 21:29:11 20° ENE 21:29:46 20° ENE 21:33:35 10° NNE visible
20 Apr 4.1 23:10:43 43° WNW 23:10:43 43° WNW 23:14:50 10° NNW visible
21 Apr 5.0 21:10:29 13° ENE 21:11:37 14° ENE 21:14:13 10° NNE visible
21 Apr 3.5 22:52:00 62° NW 22:52:00 62° NW 22:56:35 10° NNW visible
22 Apr 3.2 22:33:17 69° NNE 22:33:17 69° NNE 22:38:11 10° N visible
23 Apr 5.8 00:14:48 11° WNW 00:14:48 11° WNW 00:15:34 10° WNW visible
23 Apr 3.5 22:14:34 50° ENE 22:14:34 50° ENE 22:19:40 10° N visible
23 Apr 5.3 23:56:06 18° WNW 23:56:06 18° WNW 23:58:40 10° NW visible
24 Apr 3.9 21:55:52 34° ENE 21:56:11 34° ENE 22:01:00 10° N visible
24 Apr 4.8 23:37:23 26° WNW 23:37:23 26° WNW 23:40:59 10° NW visible
25 Apr 4.4 21:37:09 23° E 21:37:57 24° ENE 21:42:10 10° NNE visible
25 Apr 4.2 23:18:40 39° WNW 23:18:40 39° WNW 23:23:00 10° NNW visible
26 Apr 4.8 21:18:27 15° E 21:19:47 16° ENE 21:23:02 10° NNE visible
26 Apr 3.5 22:59:58 59° WNW 22:59:58 59° WNW 23:04:49 10° NNW visible
27 Apr 5.2 21:00:18 10° ENE 21:01:40 11° ENE 21:03:02 10° NE visible
27 Apr 3.1 22:41:15 83° N 22:41:15 83° N 22:46:29 10° NNW visible
